Date,TemperatureHighF,TemperatureAvgF,TemperatureLowF,DewpointHighF,DewpointAvgF,DewpointLowF,HumidityHigh,HumidityAvg,HumidityLow,PressureMaxIn,PressureMinIn,WindSpeedMaxMPH,WindSpeedAvgMPH,GustSpeedMaxMPH,PrecipitationSumIn
2013-1-1,40.2,38.9,36.7,29.0,27.5,25.0,66,63,61,29.85,29.68,14,6,14,1.85
2013-1-2,36.7,30.6,24.3,25.0,19.6,14.2,65,63,62,29.97,29.85,15,9,15,1.85
2013-1-3,30.8,28.0,25.2,19.7,17.3,14.8,64,64,63,30.03,29.91,12,6,12,1.85
2013-1-4,36.9,34.5,30.8,25.1,23.1,19.7,65,63,62,29.91,29.80,13,7,13,1.85
2013-1-5,45.9,36.5,31.0,32.7,24.9,20.0,65,62,60,30.12,29.83,16,6,16,1.85
2013-1-6,48.1,39.2,33.5,35.7,29.4,23.0,85,68,62,30.06,29.88,11,3,11,1.85
2013-1-7,49.3,39.3,31.9,35.3,28.9,20.9,77,66,59,30.24,29.88,12,4,12,1.85
2013-1-8,49.5,38.3,31.2,36.9,28.4,21.5,79,68,62,30.27,30.18,15,4,15,0.00
2013-1-9,48.3,40.7,31.0,39.8,33.5,25.1,86,76,67,30.24,29.97,12,3,12,0.00
2013-1-10,48.3,46.0,41.8,39.7,33.7,27.8,72,62,59,30.39,30.06,9,5,9,0.00
2013-1-11,44.8,39.9,34.2,44.3,33.3,24.7,98,78,64,30.39,29.97,9,2,9,0.47
2013-1-12,46.3,44.5,43.8,46.3,44.5,43.8,100,100,98,30.03,29.91,6,3,6,0.12
2013-1-13,49.9,44.4,41.8,49.9,44.4,41.8,100,100,100,30.00,29.85,8,2,8,0.00
2013-1-14,56.0,50.2,40.2,56.0,46.8,33.8,100,89,68,30.15,29.85,10,3,10,0.04
2013-1-15,40.2,38.3,36.4,34.2,30.2,26.6,89,73,64,30.18,30.09,11,3,11,0.08
2013-1-16,37.6,35.7,34.2,37.6,35.1,27.0,100,98,67,30.09,29.71,12,4,12,0.59
2013-1-17,43.6,40.1,37.5,38.3,31.9,26.6,100,73,63,29.94,29.77,15,5,15,0.04
2013-1-18,37.6,30.2,25.6,26.6,19.3,15.1,65,63,63,30.33,29.88,16,6,16,0.00
2013-1-19,49.7,33.0,26.1,36.0,21.9,15.6,64,63,59,30.27,29.83,21,8,21,0.00
2013-1-20,54.2,42.3,32.2,39.8,30.4,21.1,64,62,58,29.83,29.53,22,7,22,0.00
2013-1-21,34.8,31.5,27.9,23.5,20.4,17.3,64,63,63,29.94,29.65,11,4,11,0.00
2013-1-22,29.5,22.3,15.1,18.5,12.3,6.2,67,65,63,30.06,29.68,23,11,23,0.00
2013-1-23,21.1,16.7,13.2,11.2,7.3,4.3,67,66,65,30.09,30.00,14,9,14,0.00
2013-1-24,25.2,17.6,14.8,14.8,8.2,5.8,67,66,64,30.24,30.00,20,8,20,0.00
2013-1-25,25.6,20.6,16.0,15.7,11.0,6.7,77,66,64,30.27,29.94,19,6,19,0.00
2013-1-26,33.3,22.4,18.0,22.1,13.4,9.8,76,68,63,30.21,29.88,18,7,18,0.00
2013-1-27,38.0,27.4,21.3,26.0,16.8,11.4,65,64,62,30.36,30.21,14,5,14,0.00
2013-1-28,36.0,31.6,25.0,35.8,25.1,14.6,99,78,63,30.33,29.85,9,2,9,0.16
2013-1-29,40.7,38.1,36.0,39.5,37.4,35.4,100,97,89,30.00,29.83,10,2,10,0.00
2013-1-30,57.3,49.6,37.8,57.3,49.6,37.8,100,100,100,29.94,29.23,16,4,16,0.08
2013-1-31,60.0,46.1,31.7,60.0,37.9,20.4,100,74,60,29.47,28.91,34,9,34,0.39
2013-2-1,32.6,30.4,25.4,21.4,19.3,15.0,64,63,63,30.06,29.47,23,10,23,0.00
2013-2-2,29.7,25.4,21.3,19.5,15.4,11.4,80,66,63,30.12,29.94,12,5,12,0.00
2013-2-3,30.9,26.7,23.5,22.5,19.4,16.3,88,74,65,29.94,29.65,12,3,12,0.00
2013-2-4,30.4,27.0,23.7,19.3,16.5,13.3,68,64,63,29.83,29.65,20,8,20,0.00
2013-2-5,30.6,28.8,27.1,28.8,23.5,16.6,96,81,63,29.83,29.77,8,2,8,0.00
2013-2-6,37.8,32.4,28.6,30.0,25.3,18.3,97,76,61,30.21,29.77,20,5,20,0.00
2013-2-7,31.3,28.0,24.3,21.8,17.2,13.9,68,63,63,30.39,30.21,11,3,11,0.00
2013-2-8,33.6,31.9,27.5,33.6,29.7,22.0,100,92,68,30.21,29.50,30,5,30,0.00
2013-2-9,30.7,28.3,22.8,27.5,21.6,12.8,100,77,63,30.18,29.59,12,2,12,0.00
2013-2-10,34.9,24.4,16.0,23.2,14.1,6.6,69,64,62,30.33,30.18,11,3,11,0.00
2013-2-11,41.0,35.4,26.6,41.0,33.6,17.6,100,93,68,30.18,29.53,9,1,9,0.91
2013-2-12,43.0,37.9,31.6,38.7,30.7,22.8,100,77,63,29.80,29.56,15,5,15,0.12
2013-2-13,40.6,33.8,27.5,31.0,25.4,21.7,85,71,61,29.80,29.53,7,1,7,0.08
2013-2-14,44.2,36.1,33.1,33.1,30.1,24.8,100,80,60,29.85,29.56,8,3,8,0.00
2013-2-15,48.9,40.7,32.5,38.0,34.1,29.7,91,78,61,29.85,29.77,7,2,7,0.00
2013-2-16,39.2,35.3,29.8,34.2,29.0,19.0,99,78,62,29.80,29.62,13,4,13,0.00
2013-2-17,30.4,26.3,17.6,19.3,15.6,8.0,66,64,63,29.83,29.50,24,11,24,0.00
2013-2-18,33.6,21.4,18.1,22.4,11.4,8.4,65,65,63,30.09,29.83,25,12,25,0.00
2013-2-19,46.0,37.0,26.8,42.8,30.2,15.9,100,77,63,30.06,29.50,14,4,14,0.12
2013-2-20,37.9,32.3,26.4,28.7,21.8,15.9,69,65,63,29.83,29.53,22,12,22,0.00
2013-2-21,32.5,27.9,24.4,21.4,17.1,14.0,64,64,63,30.12,29.83,22,10,22,0.00
2013-2-22,36.0,30.9,25.5,26.9,20.7,15.7,75,66,64,30.24,30.12,13,3,13,0.00
2013-2-23,37.2,35.6,34.0,37.2,34.1,26.9,100,95,75,30.15,29.65,12,4,12,0.24
2013-2-24,44.2,37.2,33.8,40.8,33.0,25.5,100,86,63,29.80,29.59,15,6,15,0.04
2013-2-25,45.1,36.0,30.7,32.9,25.7,22.1,74,66,60,30.06,29.80,12,5,12,0.00
2013-2-26,40.5,36.9,30.2,37.9,32.2,28.1,100,83,73,30.15,29.77,11,3,11,0.08
2013-2-27,44.6,39.8,35.6,44.6,39.8,35.6,100,100,100,29.77,29.35,18,6,18,1.38
2013-2-28,46.9,40.1,38.3,42.0,37.8,30.2,100,92,64,29.47,29.38,10,2,10,0.00
2013-3-1,41.7,38.1,34.7,33.2,30.2,25.8,88,73,63,29.62,29.44,14,4,14,0.00
2013-3-2,39.2,36.3,31.6,29.1,25.7,23.6,87,65,63,29.62,29.53,15,6,15,0.00
2013-3-3,39.4,33.3,29.8,27.7,22.9,19.5,85,66,61,29.59,29.50,14,7,14,0.00
2013-3-4,38.7,33.1,28.4,26.4,21.7,17.4,65,63,61,29.71,29.59,18,10,18,0.00
2013-3-5,43.5,37.7,31.3,30.6,26.2,20.7,65,63,60,29.85,29.71,12,6,12,0.00
2013-3-6,41.2,38.5,35.6,35.5,30.9,27.6,85,74,64,29.85,29.71,19,6,19,0.00
2013-3-7,37.6,35.1,33.3,33.6,31.3,27.8,100,86,75,29.91,29.77,15,8,15,0.12
2013-3-8,38.5,33.7,31.6,33.6,30.8,27.1,100,91,66,30.03,29.83,10,3,10,0.31
2013-3-9,51.1,39.8,33.1,36.9,28.3,23.7,68,63,59,30.18,30.03,10,4,10,0.12
2013-3-10,43.5,35.9,29.1,35.3,30.3,25.7,93,80,70,30.24,30.15,7,3,7,0.00
2013-3-11,53.6,44.1,36.9,46.7,39.3,32.5,94,84,68,30.18,29.94,11,3,11,0.00
2013-3-12,54.5,50.8,42.4,54.3,49.1,36.1,100,94,76,29.94,29.53,19,6,19,0.55
2013-3-13,48.4,41.6,34.5,37.7,33.2,29.0,93,73,59,29.74,29.65,12,4,12,0.00
2013-3-14,38.8,33.8,28.9,31.3,22.6,17.9,74,63,61,29.80,29.71,29,11,29,0.00
2013-3-15,43.5,33.2,29.7,31.8,21.9,18.6,63,63,60,29.83,29.59,22,9,22,0.00
2013-3-16,39.9,35.0,32.7,30.9,26.3,23.0,91,71,61,29.74,29.62,13,6,13,0.00
2013-3-17,37.9,33.8,30.0,29.7,24.3,19.7,87,68,61,30.12,29.74,12,4,12,0.00
2013-3-18,34.2,31.4,27.9,27.5,21.5,16.9,85,67,62,30.27,29.88,11,5,11,0.00
2013-3-19,42.1,35.7,31.5,39.4,34.1,27.5,100,94,76,29.88,29.53,17,4,17,0.75
2013-3-20,39.2,36.0,32.0,29.5,24.6,21.6,76,63,61,29.74,29.56,15,7,15,0.00
2013-3-21,36.5,33.9,31.8,26.2,23.9,21.4,75,66,62,29.68,29.50,14,4,14,0.04
2013-3-22,39.2,34.6,29.8,26.9,22.9,18.8,63,62,61,29.71,29.56,17,7,17,0.00
2013-3-23,43.5,38.3,33.3,30.6,26.2,22.0,63,61,60,29.77,29.65,22,10,22,0.00
2013-3-24,46.8,37.4,32.5,33.2,25.5,21.4,63,62,59,29.77,29.56,11,4,11,0.00
2013-3-25,39.9,38.1,36.1,35.6,29.6,25.1,95,72,61,29.56,29.29,9,4,9,0.04
2013-3-26,50.2,38.9,35.6,36.4,30.7,26.9,95,73,59,29.71,29.41,19,2,19,0.00
2013-3-27,50.2,40.5,34.2,36.4,29.1,24.4,67,64,59,29.80,29.71,14,6,14,0.00
2013-3-28,50.0,42.6,36.5,37.1,31.6,28.7,74,65,61,29.94,29.80,12,4,12,0.00
2013-3-29,54.3,45.4,38.8,39.9,32.8,27.7,64,61,58,29.97,29.88,16,5,16,0.00
2013-3-30,58.8,46.2,37.0,43.6,34.0,28.7,75,63,57,30.00,29.88,7,3,7,0.00
2013-3-31,55.4,44.6,34.5,42.3,35.8,28.7,99,72,58,29.97,29.62,14,4,14,0.08
2013-4-1,61.2,48.3,38.3,49.8,40.9,26.0,100,78,59,29.74,29.47,16,6,16,0.00
2013-4-2,43.7,37.9,33.1,30.6,25.9,21.9,63,62,60,29.94,29.74,17,8,17,0.00
2013-4-3,46.0,38.7,33.3,33.0,26.6,22.0,63,61,60,30.12,29.91,22,10,22,0.00
2013-4-4,52.3,39.8,33.3,38.0,27.6,22.0,66,62,58,30.21,29.97,12,5,12,0.00
2013-4-5,59.2,45.5,39.9,44.7,32.8,27.9,63,61,57,29.97,29.56,14,5,14,0.00
2013-4-6,58.5,42.4,36.5,43.3,29.7,24.7,62,60,57,30.15,29.83,12,8,12,0.00
2013-4-7,55.9,45.7,37.9,42.8,34.2,25.7,82,64,60,30.15,29.85,12,4,12,0.00
2013-4-8,66.4,54.9,42.3,50.7,44.8,39.0,95,70,57,29.91,29.83,12,2,12,0.00
2013-4-9,80.4,61.9,46.6,62.8,50.3,43.2,92,67,55,29.85,29.77,13,4,13,0.00
2013-4-10,71.4,58.4,47.3,55.4,48.1,38.3,94,70,57,29.80,29.68,23,4,23,0.00
2013-4-11,59.4,52.9,45.5,55.2,47.6,38.6,100,83,59,29.91,29.71,13,3,13,0.35
2013-4-12,45.7,42.3,40.3,41.5,39.6,34.2,100,91,67,29.91,29.56,22,7,22,0.63
2013-4-13,55.2,46.0,39.2,41.6,38.5,35.6,100,77,60,29.83,29.59,11,3,11,0.04
2013-4-14,57.0,49.6,44.4,41.8,38.0,32.4,80,64,57,30.09,29.83,15,5,15,0.00
2013-4-15,61.7,47.1,40.3,46.7,34.8,29.9,71,62,57,30.24,30.09,15,3,15,0.00
2013-4-16,65.3,53.9,42.8,54.1,45.7,31.3,90,74,60,30.24,29.97,18,4,18,0.00
2013-4-17,73.0,60.0,52.2,56.4,48.6,40.9,84,67,56,30.12,29.97,11,3,11,0.00
2013-4-18,61.7,55.0,47.7,53.2,44.4,36.4,90,68,59,30.21,29.97,14,4,14,0.00
2013-4-19,72.1,63.0,56.3,63.0,58.0,53.7,100,85,67,29.97,29.50,13,4,13,0.00
2013-4-20,64.0,53.8,47.8,58.4,43.9,34.2,97,70,57,30.15,29.53,16,6,16,0.12
2013-4-21,58.5,42.2,37.6,43.1,29.5,25.4,61,60,57,30.47,30.15,13,5,13,0.00
2013-4-22,55.0,47.2,39.2,41.4,35.1,28.2,78,63,58,30.53,30.36,15,4,15,0.00
2013-4-23,48.6,43.0,40.6,40.3,33.9,31.7,78,70,65,30.39,29.94,15,6,15,0.00
2013-4-24,64.2,52.4,42.8,50.3,44.4,38.8,96,75,58,29.94,29.71,12,4,12,0.00
2013-4-25,66.6,54.7,47.7,53.1,42.6,35.3,97,65,57,30.12,29.74,18,5,18,0.00
2013-4-26,68.2,57.3,41.7,52.4,43.7,34.1,81,61,57,30.24,30.12,7,3,7,0.00
2013-4-27,70.9,55.9,43.3,54.9,42.0,31.6,63,59,57,30.27,30.12,9,3,9,0.00
2013-4-28,56.8,49.5,45.5,46.7,39.4,35.1,83,68,58,30.18,30.06,12,2,12,0.00
2013-4-29,57.4,54.3,52.2,47.7,45.4,40.2,83,72,59,30.09,30.06,7,2,7,0.00
2013-4-30,62.4,56.3,49.6,47.9,46.1,35.9,91,70,59,30.18,30.06,8,3,8,0.00
2013-5-1,66.6,53.0,43.3,50.9,40.8,32.6,83,63,57,30.33,30.18,12,3,12,0.00
2013-5-2,73.0,56.6,43.5,56.4,45.5,39.0,90,67,56,30.33,30.18,9,2,9,0.00
2013-5-3,64.8,57.0,50.9,49.5,43.4,38.0,66,60,58,30.33,30.21,14,4,14,0.00
2013-5-4,68.9,55.4,45.9,53.1,44.4,36.3,93,67,57,30.24,30.09,9,2,9,0.00
2013-5-5,61.2,51.3,45.9,46.7,40.4,36.6,83,66,59,30.15,30.06,12,4,12,0.00
2013-5-6,63.3,51.6,45.9,49.7,45.4,38.9,92,80,61,30.12,30.00,8,3,8,0.00
2013-5-7,67.8,56.6,49.3,56.9,51.5,44.8,100,84,67,30.03,29.97,14,3,14,0.00
2013-5-8,67.6,57.9,54.3,67.6,56.9,53.8,100,97,82,29.97,29.83,12,3,12,0.43
2013-5-9,64.0,55.1,53.1,63.1,54.9,53.1,100,99,85,29.88,29.77,11,2,11,0.35
2013-5-10,77.7,63.8,53.1,61.9,55.4,52.8,100,76,55,29.85,29.77,8,2,8,0.28
2013-5-11,66.7,61.9,59.2,64.0,59.2,54.1,100,91,79,29.77,29.56,11,2,11,0.67
2013-5-12,68.9,60.6,53.1,59.4,54.0,38.7,100,81,57,29.77,29.53,17,5,17,0.04
2013-5-13,57.6,51.4,47.5,42.5,37.2,33.9,59,58,57,29.94,29.77,11,7,11,0.04
2013-5-14,61.3,51.5,44.1,46.9,38.2,32.3,65,60,57,29.97,29.85,10,6,10,0.04
2013-5-15,66.0,56.5,47.8,53.5,45.7,36.4,80,67,59,29.91,29.53,8,2,8,0.04
2013-5-16,80.1,67.7,58.8,62.5,55.5,47.4,82,66,55,29.65,29.56,9,2,9,0.04
2013-5-17,72.7,63.8,57.2,56.1,49.0,43.0,67,59,56,29.94,29.62,9,3,9,0.00
2013-5-18,67.3,60.8,54.5,54.8,52.1,48.1,91,74,57,30.15,30.12,8,2,8,0.04
2013-5-19,58.5,56.8,55.9,58.5,55.1,52.7,100,94,87,30.18,30.03,10,1,10,0.31
2013-5-20,78.6,62.0,57.4,68.4,59.7,57.4,100,94,60,30.03,29.80,9,2,9,0.00
2013-5-21,86.0,72.7,63.5,68.5,64.3,61.3,98,77,56,29.83,29.68,10,2,10,0.00
2013-5-22,73.2,65.8,57.2,67.4,61.4,57.2,100,86,77,29.80,29.71,9,3,9,0.00
2013-5-23,77.7,67.4,64.6,71.6,64.9,62.6,100,92,66,29.74,29.65,10,2,10,0.00
2013-5-24,66.2,58.6,47.7,66.2,56.5,42.4,100,93,81,29.80,29.53,10,4,10,0.16
2013-5-25,52.2,48.2,44.8,45.7,43.0,38.8,100,83,64,29.83,29.74,16,7,16,0.28
2013-5-26,66.4,55.0,48.0,50.7,42.6,38.3,72,63,57,30.03,29.77,18,7,18,0.00
2013-5-27,74.5,61.3,48.9,57.8,47.4,38.4,72,60,56,30.09,29.97,11,3,11,0.00
2013-5-28,61.0,57.1,51.8,58.1,51.0,43.1,100,81,62,30.09,30.00,9,2,9,0.43
2013-5-29,81.5,69.9,57.0,67.4,62.2,57.0,100,79,59,30.00,29.85,9,2,9,0.00
2013-5-30,91.8,74.3,65.1,71.5,65.0,59.9,92,75,52,29.97,29.88,9,2,9,0.00
2013-5-31,87.6,78.1,68.2,70.0,64.5,60.6,84,64,53,29.97,29.83,4,2,4,0.00
2013-6-1,88.3,77.4,70.2,70.0,64.8,61.7,82,66,53,29.85,29.74,6,4,6,0.00
2013-6-2,86.9,75.8,68.7,69.3,64.8,62.0,85,69,56,29.77,29.62,8,3,8,0.00
2013-6-3,76.5,70.6,67.1,68.9,66.1,63.0,100,87,67,29.71,29.65,9,3,9,0.51
2013-6-4,74.8,65.4,56.7,66.3,51.2,43.8,87,61,56,29.94,29.71,11,4,11,0.00
2013-6-5,73.0,63.8,57.2,56.4,49.2,43.0,70,59,56,30.06,29.94,8,3,8,0.00
2013-6-6,71.8,63.8,57.6,61.8,55.6,0.0,96,76,56,30.00,29.88,11,2,11,0.04
2013-6-7,61.0,59.6,57.9,61.0,59.4,57.9,100,100,92,29.88,29.50,14,4,14,3.98
2013-6-8,75.2,65.1,56.3,64.8,59.6,56.3,100,84,60,29.88,29.44,11,3,11,0.75
2013-6-9,79.9,69.1,59.4,67.6,59.1,54.8,100,73,55,30.03,29.88,9,2,9,0.00
2013-6-10,66.7,64.4,60.6,66.3,63.1,58.1,100,96,78,30.00,29.71,15,3,15,1.02
2013-6-11,79.2,68.6,60.6,71.4,63.7,56.8,100,86,57,29.71,29.44,11,4,11,0.39
2013-6-12,74.8,68.3,62.1,58.1,54.5,51.2,74,62,56,29.71,29.53,16,6,16,0.20
2013-6-13,64.0,61.6,56.1,60.4,57.4,53.7,100,86,74,29.68,29.32,20,3,20,1.26
2013-6-14,72.0,60.3,53.6,57.5,53.8,51.7,100,81,59,29.68,29.35,15,3,15,0.20
2013-6-15,79.7,68.3,58.3,62.1,58.4,53.4,91,72,55,29.85,29.68,11,3,11,0.00
2013-6-16,79.2,69.3,59.7,62.6,58.0,53.8,83,68,55,29.83,29.62,9,3,9,0.00
2013-6-17,86.4,74.9,67.5,68.0,63.1,59.5,83,68,53,29.77,29.68,10,3,10,0.04
2013-6-18,74.3,68.4,64.4,68.6,65.0,60.0,100,89,71,29.77,29.68,11,3,11,0.20
2013-6-19,76.6,67.0,59.4,64.4,55.7,50.3,100,68,55,30.00,29.71,11,4,11,0.00
2013-6-20,77.9,68.1,57.2,60.3,55.1,51.4,87,64,55,30.12,30.00,10,3,10,0.00
2013-6-21,82.9,70.7,63.3,64.6,55.9,0.0,69,60,45,30.15,30.09,8,3,8,0.00
2013-6-22,83.3,70.8,61.7,64.9,56.3,50.5,77,61,54,30.12,29.97,9,2,9,0.00
2013-6-23,87.1,76.5,67.5,69.5,63.2,54.2,83,64,56,30.03,29.91,8,2,8,0.00
2013-6-24,91.0,78.1,72.0,72.5,68.6,60.4,99,75,55,29.91,29.77,11,2,11,0.00
2013-6-25,90.5,80.9,70.0,71.3,66.5,61.1,81,63,52,29.83,29.65,9,3,9,0.00
2013-6-26,84.4,79.1,74.5,67.0,65.1,63.5,77,63,56,29.68,29.62,8,2,8,0.00
2013-6-27,79.3,74.5,71.1,74.8,69.7,66.8,100,86,71,29.68,29.53,8,3,8,1.14
2013-6-28,84.6,76.1,71.1,74.1,70.0,65.4,100,83,61,29.53,29.32,8,2,8,0.00
2013-6-29,84.4,75.9,70.0,70.2,66.5,64.7,90,74,58,29.53,29.35,7,2,7,0.00
2013-6-30,81.5,74.1,69.8,74.1,70.0,67.7,95,87,74,29.77,29.53,11,3,11,0.00
2013-7-1,75.6,73.5,72.1,75.6,73.2,71.1,100,99,93,29.91,29.74,4,1,4,0.47
2013-7-2,83.5,75.0,72.0,76.7,72.8,69.8,100,94,67,30.03,29.91,6,1,6,0.04
2013-7-3,85.1,75.7,70.7,75.7,71.6,68.6,100,88,65,30.09,30.00,6,1,6,0.31
2013-7-4,81.9,75.4,73.2,77.2,72.0,67.5,100,90,65,30.09,30.00,5,1,5,0.00
2013-7-5,90.7,81.3,74.3,73.3,70.5,67.5,91,71,55,30.06,29.91,11,2,11,0.00
2013-7-6,93.2,83.5,75.7,73.6,70.2,67.5,86,65,51,29.97,29.85,11,3,11,0.00
2013-7-7,94.3,85.4,78.4,75.1,70.5,67.5,76,62,54,29.88,29.74,8,3,8,0.00
2013-7-8,91.4,80.8,73.2,71.3,66.7,61.4,77,63,52,29.85,29.80,9,3,9,0.00
2013-7-9,85.8,76.4,72.7,76.0,66.6,63.5,95,72,56,29.91,29.83,9,2,9,0.08
2013-7-10,85.5,77.5,71.8,76.8,72.9,69.1,100,87,68,29.85,29.62,10,2,10,0.08
2013-7-11,81.5,76.2,72.3,74.2,69.8,64.2,96,81,64,29.77,29.65,5,1,5,0.08
2013-7-12,73.4,71.5,67.3,69.9,65.1,60.7,100,81,71,29.94,29.74,12,3,12,0.55
2013-7-13,74.3,69.7,67.3,74.3,69.5,67.3,100,99,89,30.12,29.91,10,3,10,0.08
2013-7-14,90.9,78.2,70.0,79.2,71.5,68.7,100,82,55,30.15,30.03,7,2,7,0.00
2013-7-15,93.4,83.4,77.7,74.3,70.6,69.3,77,66,54,30.06,29.94,9,3,9,0.00
2013-7-16,91.8,82.5,73.8,71.7,69.1,64.8,89,65,52,30.03,29.94,10,3,10,0.00
2013-7-17,95.7,83.9,74.1,74.7,69.5,64.7,87,63,51,30.03,29.88,6,2,6,0.00
2013-7-18,98.2,85.9,77.2,77.0,71.1,67.1,76,62,51,29.88,29.77,8,2,8,0.00
2013-7-19,99.0,88.7,81.5,77.5,73.6,70.9,76,62,50,29.77,29.62,10,3,10,0.00
2013-7-20,93.9,84.3,80.8,74.6,69.9,66.0,68,62,51,29.68,29.53,14,4,14,0.00
2013-7-21,85.5,79.2,75.0,69.7,64.9,62.4,77,62,53,29.80,29.65,5,2,5,0.00
2013-7-22,79.9,75.4,73.0,74.7,71.3,64.0,100,88,63,29.80,29.65,13,5,13,0.04
2013-7-23,88.5,77.7,72.3,76.1,72.1,67.4,100,85,55,29.65,29.38,11,2,11,1.26
2013-7-24,81.7,73.2,68.0,74.8,69.8,53.6,100,91,58,29.68,29.44,11,2,11,0.00
2013-7-25,68.0,64.5,62.8,60.4,53.6,49.3,92,68,60,29.88,29.68,12,4,12,0.00
2013-7-26,77.7,69.5,62.6,64.6,60.3,58.6,92,74,58,29.88,29.83,8,2,8,0.00
2013-7-27,82.9,73.8,67.1,67.9,63.9,59.8,92,73,54,29.88,29.80,7,2,7,0.00
2013-7-28,79.0,72.6,67.5,70.0,65.8,63.0,97,80,65,29.83,29.77,6,2,6,0.00
2013-7-29,86.2,76.0,72.0,72.0,65.4,55.8,100,71,53,29.88,29.80,10,3,10,0.00
2013-7-30,75.4,70.1,64.2,59.7,56.4,55.0,80,62,55,30.00,29.88,9,2,9,0.00
2013-7-31,82.9,74.9,68.9,64.6,59.6,57.5,77,59,54,30.00,29.88,8,3,8,0.00
2013-8-1,75.4,69.4,67.3,68.7,64.3,59.6,100,84,66,29.88,29.68,6,1,6,0.43
2013-8-2,84.4,74.4,68.2,68.9,64.9,58.8,100,75,53,29.74,29.62,8,3,8,0.00
2013-8-3,78.3,73.0,68.0,66.8,61.0,55.8,86,67,55,29.74,29.68,8,3,8,0.04
2013-8-4,78.3,71.8,64.8,63.0,59.0,52.9,82,65,55,29.77,29.68,14,4,14,0.00
2013-8-5,78.3,69.0,62.6,60.8,53.8,49.8,69,58,55,29.88,29.77,9,4,9,0.00
2013-8-6,78.6,68.6,60.4,63.6,58.6,53.2,92,71,55,29.97,29.85,8,2,8,0.00
2013-8-7,79.3,71.5,64.9,65.3,61.1,57.5,80,70,57,29.97,29.91,12,1,12,0.00
2013-8-8,82.6,74.1,68.9,73.8,69.1,65.3,100,85,67,29.91,29.85,8,2,8,0.04
2013-8-9,81.0,76.1,73.4,78.0,73.9,70.5,100,93,77,29.85,29.62,9,2,9,0.39
2013-8-10,82.6,74.5,68.5,73.6,63.7,57.1,97,71,54,29.88,29.68,14,4,14,0.00
2013-8-11,77.5,70.2,62.4,60.1,56.4,52.3,70,62,55,29.94,29.85,8,2,8,0.00
2013-8-12,78.1,72.2,69.3,70.4,63.9,58.9,99,76,58,29.88,29.77,9,2,9,0.00
2013-8-13,73.9,70.8,68.7,72.0,67.7,63.0,100,90,71,29.77,29.53,11,2,11,0.35
2013-8-14,73.6,67.4,61.0,68.2,55.1,47.5,100,66,56,29.85,29.56,18,7,18,0.16
2013-8-15,76.8,67.5,59.4,59.5,54.5,50.7,80,64,55,29.97,29.85,11,3,193,1.20
2013-8-16,78.6,67.5,59.7,61.1,56.4,53.8,85,69,55,30.03,29.94,4,1,4,0.00
2013-8-17,78.4,69.9,60.4,61.0,58.1,54.7,88,68,55,30.12,30.03,5,2,5,0.00
2013-8-18,73.4,69.1,64.4,66.9,61.3,55.8,91,77,67,30.09,29.97,8,2,8,0.00
2013-8-19,77.0,70.2,64.2,62.6,59.1,57.0,79,68,58,29.97,29.85,9,2,9,0.00
2013-8-20,85.8,74.7,65.7,66.9,63.7,59.2,91,70,53,29.97,29.85,1,1,1,0.00
2013-8-21,86.4,76.0,67.1,68.8,64.6,61.3,93,69,53,30.00,29.88,6,1,6,0.00
2013-8-22,76.1,73.3,70.3,76.1,71.1,66.5,100,93,79,29.91,29.71,8,1,8,0.28
2013-8-23,77.4,73.0,68.5,71.8,62.6,55.0,100,72,55,29.88,29.71,10,3,10,0.00
2013-8-24,76.6,68.7,63.9,59.3,54.2,50.2,76,60,55,30.18,29.88,11,4,11,0.00
2013-8-25,81.7,69.7,60.3,64.6,58.1,52.7,93,69,54,30.21,30.06,10,2,10,0.00
2013-8-26,80.2,73.3,68.4,67.5,58.9,52.7,87,61,55,30.06,29.74,11,3,11,0.04
2013-8-27,82.4,74.6,70.0,71.1,67.7,63.5,100,80,59,29.74,29.65,10,3,10,0.28
2013-8-28,79.9,74.0,68.2,73.2,68.2,66.0,100,83,66,29.74,29.68,10,2,10,0.00
2013-8-29,76.8,72.2,69.1,72.2,65.7,60.7,100,81,60,29.85,29.68,11,3,11,0.00
2013-8-30,82.9,73.7,67.5,68.3,64.7,61.8,88,74,56,29.85,29.68,119,2,119,0.00
2013-8-31,84.7,76.8,71.6,71.2,69.0,67.4,89,78,64,29.68,29.59,8,3,8,0.00
2013-9-1,82.9,76.5,72.9,73.9,70.9,68.8,93,83,67,29.68,29.59,8,2,8,1.20
2013-9-2,77.9,74.6,71.6,75.9,73.6,70.0,100,97,90,29.62,29.53,10,1,10,0.39
2013-9-3,78.8,75.4,68.9,73.9,64.6,54.6,100,71,55,29.77,29.59,11,5,11,0.39
2013-9-4,79.0,71.3,64.9,61.5,57.3,54.2,78,62,55,30.36,29.77,12,5,12,1.20
2013-9-5,75.0,70.7,63.3,60.0,56.0,48.3,78,60,56,31.01,30.33,11,3,11,0.00
2013-9-6,68.9,61.5,57.4,53.1,46.8,43.2,59,58,57,31.01,31.01,12,3,12,0.00
2013-9-7,71.6,64.8,55.2,55.3,51.7,44.7,79,63,56,17.72,17.72,8,2,8,0.00
2013-9-8,78.6,70.5,64.9,62.6,56.1,52.8,71,61,55,17.72,17.72,12,4,12,0.00
2013-9-9,70.0,63.9,55.9,54.1,49.3,43.0,70,59,57,17.72,17.72,9,3,9,0.00
2013-9-10,81.0,72.6,63.7,69.7,64.0,49.7,84,75,65,17.72,17.72,7,1,7,0.00
2013-9-11,89.8,80.2,73.4,73.7,70.3,67.1,92,73,55,17.72,17.72,9,2,9,0.00
2013-9-12,84.2,76.7,69.6,71.1,69.0,65.3,99,78,61,17.72,17.72,5,2,5,0.43
2013-9-13,72.9,68.1,60.4,69.3,61.9,50.1,100,82,59,17.72,17.72,11,4,11,0.04
2013-9-14,64.6,58.8,55.4,50.3,47.5,45.3,72,66,58,17.72,17.72,15,6,15,0.00
2013-9-15,68.4,60.0,51.8,55.0,48.6,44.3,81,67,57,17.72,17.72,10,3,10,0.00
2013-9-16,69.1,62.5,58.6,56.1,53.9,45.7,84,74,57,17.72,17.72,11,2,11,0.00
2013-9-17,60.8,54.4,49.3,46.4,41.3,36.4,66,61,59,17.72,17.72,13,2,13,0.00
2013-9-18,68.7,57.6,47.3,52.9,46.8,41.3,88,68,57,17.72,17.72,10,2,10,0.00
2013-9-19,73.6,65.7,57.7,56.9,52.5,48.8,79,63,56,17.72,17.72,9,2,9,0.00
2013-9-20,74.8,65.7,56.1,59.9,55.8,52.4,91,72,56,17.72,17.72,8,2,8,0.00
2013-9-21,72.5,66.3,58.8,69.3,62.1,56.1,96,87,76,17.72,17.72,8,3,8,0.20
2013-9-22,69.4,63.1,55.9,67.9,54.5,42.1,100,75,58,17.72,17.72,14,6,14,1.18
2013-9-23,63.5,57.2,51.3,48.5,43.6,38.3,63,60,58,17.72,17.72,10,5,10,0.00
2013-9-24,67.6,54.3,49.1,51.9,41.8,37.5,72,63,57,17.72,17.72,11,3,11,0.00
2013-9-25,68.7,60.4,55.9,52.9,47.1,43.2,76,62,57,17.72,17.72,8,5,8,0.00
2013-9-26,65.5,59.9,55.0,57.5,53.7,48.5,90,80,63,17.72,17.72,9,4,9,0.00
2013-9-27,64.2,60.2,55.8,53.2,51.1,49.4,83,72,61,17.72,17.72,9,3,9,0.00
2013-9-28,68.7,62.2,56.5,54.1,52.0,49.0,86,70,57,17.72,17.72,11,2,11,0.00
2013-9-29,66.0,59.7,54.3,62.0,51.9,46.3,100,76,58,17.72,17.72,9,2,9,0.00
2013-9-30,68.0,59.6,51.8,55.4,51.0,48.1,98,74,57,17.72,17.72,9,2,9,0.00
2013-10-1,75.2,63.1,59.0,58.3,54.8,52.3,83,75,55,17.72,17.72,11,1,11,0.00
2013-10-2,78.4,68.1,58.1,62.0,57.9,54.9,92,71,55,17.72,17.72,8,2,8,0.00
2013-10-3,72.3,65.6,57.9,60.9,54.5,51.4,92,69,56,17.72,17.72,6,2,6,0.00
2013-10-4,81.1,68.1,61.7,66.9,59.7,52.2,97,75,57,17.72,17.72,12,2,12,0.00
2013-10-5,70.5,67.0,64.0,62.3,61.0,59.5,90,81,72,17.72,17.72,9,2,9,0.00
2013-10-6,66.4,65.4,64.4,66.4,64.6,62.3,100,97,89,17.72,17.72,9,2,9,0.00
2013-10-7,74.1,68.4,61.3,73.1,64.8,51.1,100,89,69,17.72,17.72,14,4,14,0.20
2013-10-8,64.4,60.7,55.9,51.1,47.1,44.5,70,61,58,17.72,17.72,11,5,11,0.00
2013-10-9,61.0,57.3,55.0,48.4,45.5,41.4,76,65,59,17.72,17.72,14,6,14,0.00
2013-10-10,63.5,59.1,54.7,54.3,50.8,45.5,84,74,64,17.72,17.72,16,6,16,0.00
2013-10-11,66.6,63.0,60.1,59.1,55.7,52.5,84,77,69,17.72,17.72,15,5,15,0.00
2013-10-12,67.8,63.3,59.9,56.2,50.5,45.5,79,63,57,17.72,17.72,19,6,19,0.00
2013-10-13,61.7,58.2,54.7,53.7,49.8,46.9,80,74,64,17.72,17.72,16,5,16,0.00
2013-10-14,61.7,54.3,51.3,50.4,46.7,44.8,85,76,59,17.72,17.72,10,1,10,0.00
2013-10-15,64.0,51.6,49.8,55.3,46.9,46.0,87,84,61,17.72,17.72,11,2,11,0.00
2013-10-16,62.4,58.4,55.0,57.7,51.5,49.3,93,78,69,17.72,17.72,10,3,10,0.00
2013-10-17,70.9,65.1,60.4,63.6,59.6,57.7,96,83,67,17.72,17.72,8,1,8,0.00
2013-10-18,66.2,62.9,58.3,63.2,51.2,44.0,96,66,57,17.72,17.72,14,6,14,0.00
2013-10-19,63.3,56.1,48.4,53.4,45.3,39.6,81,67,58,17.72,17.72,9,1,9,0.00
2013-10-20,59.4,55.8,51.8,54.2,46.3,39.6,83,71,63,17.72,17.72,15,6,15,0.00
2013-10-21,64.2,59.4,54.1,49.2,45.5,42.6,68,60,58,17.72,17.72,12,2,12,0.00
2013-10-22,65.7,57.4,48.9,53.2,46.4,41.6,87,68,58,17.72,17.72,8,2,8,0.00
2013-10-23,53.2,51.1,47.8,42.5,38.5,35.1,68,62,61,17.72,17.72,11,4,11,0.00
2013-10-24,53.8,47.8,42.4,39.2,35.0,31.9,68,61,58,17.72,17.72,15,7,15,0.00
2013-10-25,52.3,47.2,42.3,39.0,34.3,30.2,63,60,58,17.72,17.72,17,7,17,0.00
2013-10-26,51.1,45.9,39.2,37.3,33.8,28.7,73,63,59,17.72,17.72,12,4,12,0.00
2013-10-27,56.8,52.3,48.9,43.1,38.3,35.2,60,59,57,17.72,17.72,12,6,12,0.00
2013-10-28,59.7,49.5,38.7,45.4,37.1,28.3,74,63,58,17.72,17.72,11,4,11,0.00
2013-10-29,52.2,50.0,41.5,37.8,36.4,31.0,66,59,58,17.72,17.72,10,3,10,0.00
2013-10-30,57.0,49.5,41.5,47.6,40.8,31.0,84,72,63,17.72,17.72,6,1,6,0.00
2013-10-31,64.9,57.4,47.5,59.2,53.2,43.8,96,86,70,17.72,17.72,8,2,8,0.00
2013-11-1,62.2,62.2,61.9,59.9,59.7,59.2,92,91,91,17.72,17.72,1,1,1,0.00
2013-11-3,49.5,44.5,37.4,36.6,32.0,25.2,67,61,59,17.72,17.72,11,5,11,0.00
2013-11-4,43.2,37.7,34.7,30.2,25.7,23.0,62,62,60,17.72,17.72,15,3,15,0.00
2013-11-5,53.1,44.2,36.3,40.0,32.2,24.6,67,62,61,30.42,17.72,9,2,9,0.00
2013-11-6,59.9,48.2,42.1,54.9,39.3,36.4,92,72,59,30.39,29.94,7,2,7,0.00
2013-11-7,63.0,56.4,44.4,60.0,51.8,32.4,97,85,60,29.94,29.59,11,5,11,0.12
2013-11-8,48.0,43.7,41.9,34.4,31.3,29.5,63,62,59,30.06,29.77,19,9,19,0.00
2013-11-9,47.3,42.0,39.4,34.8,29.4,27.1,63,61,59,30.15,29.85,11,6,11,0.00
2013-11-10,47.3,47.0,46.8,35.0,34.6,34.4,62,62,62,29.85,29.80,5,2,5,0.00
2013-11-11,51.1,49.1,43.7,37.3,35.5,30.7,60,59,59,30.06,29.83,15,5,15,0.00
2013-11-12,50.7,38.9,32.4,36.9,29.9,21.2,97,71,59,30.12,29.80,11,6,11,0.08
2013-11-13,38.7,33.6,28.9,26.4,22.1,17.9,63,62,61,30.21,30.09,12,6,12,0.00
2013-11-14,51.3,37.6,34.0,37.4,25.5,22.4,62,61,59,30.18,30.00,15,4,15,0.00
2013-11-15,44.1,42.4,39.4,31.1,29.7,27.1,61,61,60,30.06,30.03,8,2,8,0.00
2013-11-18,63.9,59.1,50.9,48.8,44.7,36.8,59,59,58,29.56,29.47,14,7,14,0.00
2013-11-19,50.5,43.0,35.4,36.8,30.2,23.7,62,61,59,30.21,29.62,20,10,20,0.00
2013-11-20,43.0,36.7,31.6,30.1,24.8,20.5,63,62,60,30.47,30.21,14,3,14,0.00
2013-11-21,49.1,35.0,29.8,36.8,24.8,20.0,73,66,61,30.48,30.24,15,2,15,0.00
2013-11-22,54.3,48.6,45.1,52.6,42.2,36.7,98,78,72,30.24,29.80,11,2,11,0.04
2013-11-23,53.2,42.0,34.7,48.2,30.6,23.0,83,64,60,29.88,29.74,23,8,23,0.00
2013-11-24,34.7,27.3,23.7,23.0,16.5,13.3,64,63,62,30.21,29.83,24,13,24,0.00
2013-11-25,35.4,28.4,22.6,23.7,17.6,12.7,65,64,62,30.33,30.18,18,9,18,0.00
2013-11-26,45.5,35.3,32.7,45.5,24.3,21.5,100,64,61,30.18,29.68,14,3,14,0.39
2013-11-27,61.3,48.0,35.1,61.3,45.4,23.2,100,91,62,29.68,29.18,28,7,28,1.77
2013-11-28,34.9,31.4,30.2,24.1,20.3,19.1,65,63,62,30.33,29.56,26,10,26,1.73
2013-11-29,36.9,31.6,29.7,25.1,20.4,18.6,63,63,62,30.59,30.33,14,3,14,0.00
2013-11-30,35.1,29.8,25.3,24.3,19.0,14.9,65,64,62,30.62,30.24,14,4,14,0.00
2013-12-1,48.4,39.7,35.1,35.6,31.2,24.5,84,72,61,30.24,29.85,7,2,7,0.00
2013-12-2,43.3,39.0,35.2,40.9,34.9,30.0,93,85,75,29.85,29.77,9,1,9,0.00
2013-12-3,51.6,42.0,31.6,40.3,35.5,30.0,98,79,61,29.85,29.74,6,1,6,0.00
2013-12-4,45.3,40.3,33.4,37.5,33.9,30.0,91,78,67,30.00,29.85,6,2,6,0.00
2013-12-5,55.9,50.9,44.2,55.9,50.4,37.5,100,98,77,30.00,29.80,8,2,8,0.00
2013-12-6,56.1,47.1,36.7,56.1,45.8,33.2,100,95,87,30.00,29.74,19,4,19,0.39
2013-12-7,41.2,36.5,34.7,35.7,28.7,23.5,97,74,61,30.36,29.97,14,6,14,0.35
2013-12-8,35.2,31.0,29.5,26.1,20.4,18.5,80,65,62,30.45,30.24,12,5,12,0.00
2013-12-9,39.2,34.1,31.8,39.2,32.9,25.8,100,95,78,30.27,29.80,16,6,16,0.39
2013-12-10,37.6,34.2,31.6,37.6,31.1,24.0,100,88,73,29.97,29.71,12,3,12,0.39
2013-12-11,33.6,31.4,29.5,24.0,21.8,18.5,73,67,63,30.18,29.97,15,7,15,0.00
2013-12-12,31.3,26.3,23.0,20.2,15.7,12.8,65,64,63,30.21,30.03,17,8,17,0.00
2013-12-13,34.3,29.0,23.4,22.7,18.1,13.0,64,63,62,30.18,29.97,17,8,17,0.00
2013-12-14,36.1,27.3,22.8,36.1,22.0,17.9,100,82,63,30.33,29.74,15,6,15,0.00
2013-12-15,37.0,34.3,30.9,35.6,30.0,22.1,100,85,65,29.74,29.35,18,9,18,0.98
2013-12-16,32.5,28.3,25.0,22.1,17.6,14.5,65,64,63,30.09,29.68,24,8,24,0.98
2013-12-17,30.6,25.6,21.9,28.9,19.9,12.0,100,80,64,30.09,29.80,8,2,8,0.98
2013-12-18,35.2,28.9,23.0,23.8,20.4,17.5,81,71,62,30.00,29.77,16,6,16,0.98
2013-12-19,41.9,35.0,27.5,29.5,23.9,17.6,70,64,61,30.03,29.88,15,4,15,0.98
2013-12-20,48.6,41.2,34.0,38.4,31.6,25.1,84,69,61,29.94,29.83,10,2,10,0.98
2013-12-21,57.2,51.9,45.1,51.6,46.8,38.4,94,83,70,29.85,29.77,11,4,11,0.98
2013-12-22,65.5,59.6,53.8,63.1,55.8,49.2,100,88,70,29.80,29.68,15,4,15,0.98
2013-12-23,57.9,52.8,41.0,57.9,51.3,35.6,100,95,81,29.97,29.80,18,3,18,0.98
2013-12-24,41.0,34.7,27.1,35.6,25.2,16.2,93,68,61,30.18,29.94,19,6,19,0.98
2013-12-25,27.1,24.3,19.6,16.2,14.0,9.7,65,64,63,30.39,30.18,20,5,20,0.00
2013-12-26,38.5,29.6,26.1,27.4,19.7,15.6,77,66,63,30.30,30.00,15,2,15,0.00
2013-12-27,37.8,34.3,31.6,25.5,23.2,21.2,70,64,61,30.21,30.12,12,6,12,0.00
2013-12-28,56.3,41.6,30.6,40.8,29.5,20.7,70,62,57,30.15,29.91,20,5,20,0.00
2013-12-29,46.2,41.5,39.7,43.0,34.6,27.6,100,78,60,29.91,29.23,19,4,19,1.30
2013-12-30,42.1,38.8,26.6,40.1,33.9,16.1,98,83,62,30.03,29.53,18,6,18,0.00
2013-12-31,31.3,26.2,20.8,20.2,15.7,10.9,65,64,63,30.12,29.91,14,6,14,0.00
2014-1-1,31.6,28.1,23.5,20.5,17.2,13.2,64,63,63,30.27,30.12,13,5,13,0.00
2014-1-2,31.5,26.1,17.6,22.9,21.3,17.1,99,83,63,30.12,29.56,23,9,23,0.00